Regional Weather Roundup
Issued by NWS

Home | Current Version | Previous Version | Text Only | Print | Product List | Glossary On
Versions: 1 2 3 4 5 6 7 8 9 10 11 12 13 14 15 16 17 18 19 20 21 22 23 24 25 26 27 28 29 30 31 32 33 34 35 36 37 38 39 40 41 42 43 44 45 46 47 48 49 50
000
ASUS43 KTOP 300559
RWRKS

WEATHER ROUNDUP FOR KANSAS
NATIONAL WEATHER SERVICE GOODLAND KS
100 AM CDT SAT MAY 30 2015

NOTE:  "FAIR" INDICATES FEW OR NO CLOUDS BELOW 12,000 FEET WITH NO
SIGNIFICANT WEATHER AND/OR OBSTRUCTIONS TO VISIBILITY.

KSZ001>006-013>018-027>032-041>047-300700-
NORTHWEST KANSAS

CITY           SKY/WX    TMP DP  RH WIND       PRES   REMARKS
GOODLAND       CLOUDY    51  47  86 N14       30.29R
6HR MIN TEMP:  51; 6HR MAX TEMP:  59;

HAYS           CLOUDY    55  45  67 N21G29    30.19R
HILL CITY      CLOUDY    54  47  77 N17G24    30.23R
6HR MIN TEMP:  54; 6HR MAX TEMP:  62; 6HR PCP:  0.02;

RUSSELL        CLOUDY    55  50  83 N20G30    30.15R
6HR MIN TEMP:  55; 6HR MAX TEMP:  79; 6HR PCP:  0.03;

$$

KSZ061>065-074>080-084>089-300700-
SOUTHWEST KANSAS

CITY           SKY/WX    TMP DP  RH WIND       PRES   REMARKS
DODGE CITY     CLOUDY    58  52  80 N20G31    30.18R
6HR MIN TEMP:  57; 6HR MAX TEMP:  78; 6HR PCP: TRACE;

ELKHART          N/A     57  49  75 N9          N/A
GARDEN CITY    CLOUDY    55  51  86 N18G28    30.20R
6HR MIN TEMP:  54; 6HR MAX TEMP:  74; 6HR PCP: TRACE;

GREAT BEND     CLOUDY    55  48  76 N16G25    30.15R
LIBERAL        MOCLDY    57  52  82 N16       30.21R
$$

KSZ066>073-081>083-090>101-300700-
SOUTHEAST KANSAS

CITY           SKY/WX    TMP DP  RH WIND       PRES   REMARKS
CHANUTE        FOG       63  63 100 CALM      29.98F VSB 1/2
6HR MIN TEMP:  63; 6HR MAX TEMP:  69;

COFFEYVILLE    CLOUDY    63  63 100 CALM      29.97F FOG
6HR MIN TEMP:  63; 6HR MAX TEMP:  69;

HUTCHINSON     PTCLDY    61  54  77 N15       30.07R
6HR MIN TEMP:  61; 6HR MAX TEMP:  78;

MEDICINE LODGE   N/A     61  55  81 NW8       30.10R
NEWTON         MOCLDY    59  52  77 N13G18    30.06R
PARSONS        CLOUDY    64  64 100 CALM      29.98F FOG
6HR MIN TEMP:  64; 6HR MAX TEMP:  69;

WICHITA INTL   MOCLDY    64  55  72 N13       30.03R
6HR MIN TEMP:  64; 6HR MAX TEMP:  77; 6HR PCP: TRACE;

WICHITA JABRA  MOCLDY    61  56  83 N13       30.03R
6HR MIN TEMP:  61; 6HR MAX TEMP:  75; 6HR PCP:  0.01;

WINFIELD       CLOUDY    65  64  97 NW6       30.02R
6HR MIN TEMP:  65; 6HR MAX TEMP:  75;

$$

KSZ007>012-019>026-033>040-048>060-102>105-300700-
NORTHEAST KANSAS

CITY           SKY/WX    TMP DP  RH WIND       PRES   REMARKS
CONCORDIA      CLOUDY    54  50  86 N16G26    30.11R
6HR MIN TEMP:  54; 6HR MAX TEMP:  77; 6HR PCP:  0.55;

EMPORIA        CLOUDY    63  60  90 NW8       29.99S
6HR MIN TEMP:  63; 6HR MAX TEMP:  71; 6HR PCP: TRACE;

LAWRENCE       CLOUDY    63  62  97 CALM      29.97F
6HR MIN TEMP:  63; 6HR MAX TEMP:  71;

MANHATTAN      CLOUDY    60  56  86 N8        30.04R
6HR MIN TEMP:  60; 6HR MAX TEMP:  77; 6HR PCP: TRACE;

OLATHE IND     FOG       63  63 100 S3        29.98F VSB 1/4
6HR MIN TEMP:  63; 6HR MAX TEMP:  68;

OLATHE EXE     CLOUDY    64  64 100 SW3       29.97F
6HR MIN TEMP:  63; 6HR MAX TEMP:  69;

SALINA         CLOUDY    59  52  77 N20G26    30.09R
6HR MIN TEMP:  58; 6HR MAX TEMP:  79; 6HR PCP:  0.02;

TOPEKA BILLARD CLOUDY    67  64  90 NW17      29.99S
6HR MIN TEMP:  65; 6HR MAX TEMP:  72; 6HR PCP:  0.01;

TOPEKA FORBES  CLOUDY    67  63  87 N15       29.97F
6HR MIN TEMP:  66; 6HR MAX TEMP:  73;

$$


USA.gov is the U.S. government's official web portal to all federal, state and local government web resources and services.